User: anonymous   Login
Location: Unspecified
(0.0000°N, 0.0000°E)
Time: 03:01:33
(UTC+00:00)
Language:

STARLINK-4004 - Orbit

View from above orbital plane
View from above orbital plane
View from above satellite
View from above satellite

Ground track
Ground track

The orbit is defined by the following mean orbital elements,

1 52656U          26145.33194306 +.00000000 +00000-0 +59039-4 0 00004
2 52656  53.2141 170.0672 0000828  66.8451 293.2628 15.08840591    06
Epoch (UTC): 25 May 2026 07:57:59
Eccentricity: 0.0000828
inclination: 53.2141°
perigee height: 539 km
apogee height: 540 km
right ascension of ascending node: 170.0672°
argument of perigee: 66.8451°
revolutions per day: 15.08840591
mean anomaly at epoch: 293.2628°

The dashed part of the orbit path shows where the satellite is in the earth's shadow,  

DLR